Time,TemperatureF,DewpointF,PressureIn,WindDirection,WindDirectionDegrees,WindSpeedMPH,WindSpeedGustMPH,Humidity,HourlyPrecipIn,Conditions,Clouds,dailyrainin,SolarRadiationWatts/m^2,SoftwareType,DateUTC
2013-04-13 00:00:00,54.9,43.8,29.91,NE,56,4.0,12.0,66,0.00,,---,0.00,0.00,VWS V14.01,2013-04-13 05:00:00,
2013-04-13 00:05:00,54.8,43.7,29.91,NE,53,4.0,9.0,66,0.00,,---,0.00,0.00,VWS V14.01,2013-04-13 05:05:00,
2013-04-13 00:10:00,54.6,43.5,29.91,NE,42,5.0,9.0,66,0.00,,---,0.00,0.00,VWS V14.01,2013-04-13 05:10:00,
2013-04-13 00:15:00,54.4,43.7,29.91,NE,42,6.0,9.0,67,0.00,,---,0.00,0.00,VWS V14.01,2013-04-13 05:15:00,
2013-04-13 00:20:00,54.2,43.5,29.92,NE,40,7.0,9.0,67,0.00,,---,0.00,0.00,VWS V14.01,2013-04-13 05:20:00,
2013-04-13 00:25:00,54.0,43.3,29.92,NE,46,5.0,9.0,67,0.00,,---,0.00,0.00,VWS V14.01,2013-04-13 05:25:00,
2013-04-13 00:30:00,54.0,43.7,29.92,NE,42,6.0,10.0,68,0.00,,---,0.00,0.00,VWS V14.01,2013-04-13 05:30:00,
2013-04-13 00:35:00,53.9,43.6,29.92,NE,51,6.0,9.0,68,0.00,,---,0.00,0.00,VWS V14.01,2013-04-13 05:35:00,
2013-04-13 00:40:00,53.9,43.6,29.92,NE,50,6.0,10.0,68,0.00,,---,0.00,0.00,VWS V14.01,2013-04-13 05:40:00,
2013-04-13 00:45:00,53.8,43.5,29.92,NE,44,5.0,10.0,68,0.00,,---,0.00,0.00,VWS V14.01,2013-04-13 05:45:00,
2013-04-13 00:50:00,53.8,43.5,29.92,NE,56,2.0,10.0,68,0.00,,---,0.00,0.00,VWS V14.01,2013-04-13 05:50:00,
2013-04-13 00:55:00,53.9,43.6,29.92,ENE,57,4.0,10.0,68,0.00,,---,0.00,0.00,VWS V14.01,2013-04-13 05:55:00,
2013-04-13 01:00:00,54.0,43.3,29.92,ENE,58,8.0,10.0,67,0.00,,---,0.00,0.00,VWS V14.01,2013-04-13 06:00:00,
2013-04-13 01:05:00,54.0,43.3,29.92,ENE,57,7.0,7.0,67,0.00,,---,0.00,0.00,VWS V14.01,2013-04-13 06:05:00,
2013-04-13 01:10:00,54.0,43.3,29.92,NE,53,6.0,10.0,67,0.00,,---,0.00,0.00,VWS V14.01,2013-04-13 06:10:00,
2013-04-13 01:15:00,54.1,43.4,29.92,NE,51,7.0,10.0,67,0.00,,---,0.00,0.00,VWS V14.01,2013-04-13 06:15:00,
2013-04-13 01:20:00,54.1,43.4,29.92,NE,54,2.0,10.0,67,0.00,,---,0.00,0.00,VWS V14.01,2013-04-13 06:20:00,
2013-04-13 01:25:00,54.0,43.3,29.92,ENE,57,4.0,10.0,67,0.00,,---,0.00,0.00,VWS V14.01,2013-04-13 06:25:00,
2013-04-13 01:30:00,54.0,43.3,29.92,NE,55,5.0,10.0,67,0.00,,---,0.00,0.00,VWS V14.01,2013-04-13 06:30:00,
2013-04-13 01:35:00,54.0,43.3,29.92,NE,56,3.0,7.0,67,0.00,,---,0.00,0.00,VWS V14.01,2013-04-13 06:35:00,
2013-04-13 01:40:00,54.0,43.3,29.92,ENE,67,2.0,8.0,67,0.00,,---,0.00,0.00,VWS V14.01,2013-04-13 06:40:00,
2013-04-13 01:45:00,54.0,43.3,29.91,ENE,65,4.0,9.0,67,0.00,,---,0.00,0.00,VWS V14.01,2013-04-13 06:45:00,
2013-04-13 01:50:00,53.9,43.6,29.91,ENE,67,2.0,9.0,68,0.00,,---,0.00,0.00,VWS V14.01,2013-04-13 06:50:00,
2013-04-13 01:55:00,53.9,43.6,29.91,ENE,65,5.0,9.0,68,0.00,,---,0.00,0.00,VWS V14.01,2013-04-13 06:55:00,
2013-04-13 02:00:00,54.0,43.7,29.91,ENE,61,5.0,9.0,68,0.00,,---,0.00,0.00,VWS V14.01,2013-04-13 07:00:00,
2013-04-13 02:06:00,54.0,43.7,29.91,ENE,61,4.0,8.0,68,0.00,,---,0.00,0.00,VWS V14.01,2013-04-13 07:06:00,
2013-04-13 02:11:00,54.0,43.7,29.91,ENE,61,3.0,9.0,68,0.00,,---,0.00,0.00,VWS V14.01,2013-04-13 07:11:00,
2013-04-13 02:16:00,54.0,43.7,29.91,ENE,68,8.0,10.0,68,0.00,,---,0.00,0.00,VWS V14.01,2013-04-13 07:16:00,
2013-04-13 02:21:00,53.9,43.6,29.91,ENE,57,8.0,10.0,68,0.00,,---,0.00,0.00,VWS V14.01,2013-04-13 07:21:00,
2013-04-13 02:26:00,53.9,43.6,29.90,ENE,67,3.0,10.0,68,0.00,,---,0.00,0.00,VWS V14.01,2013-04-13 07:26:00,
2013-04-13 02:31:00,53.9,43.6,29.90,ENE,66,3.0,11.0,68,0.00,,---,0.00,0.00,VWS V14.01,2013-04-13 07:31:00,
2013-04-13 02:36:00,53.9,43.6,29.90,ENE,58,10.0,10.0,68,0.00,,---,0.00,0.00,VWS V14.01,2013-04-13 07:36:00,
2013-04-13 02:41:00,53.9,43.6,29.90,East,98,5.0,12.0,68,0.00,,---,0.00,0.00,VWS V14.01,2013-04-13 07:41:00,
2013-04-13 02:47:00,53.9,43.6,29.90,ENE,65,3.0,13.0,68,0.00,,---,0.00,0.00,VWS V14.01,2013-04-13 07:47:00,
2013-04-13 02:52:00,53.8,43.5,29.89,East,85,3.0,13.0,68,0.00,,---,0.00,0.00,VWS V14.01,2013-04-13 07:52:00,
2013-04-13 02:57:00,53.8,43.9,29.89,East,87,5.0,16.0,69,0.00,,---,0.00,0.00,VWS V14.01,2013-04-13 07:57:00,
2013-04-13 03:02:00,53.8,43.9,29.88,East,85,8.0,13.0,69,0.00,,---,0.00,0.00,VWS V14.01,2013-04-13 08:02:00,
2013-04-13 03:07:00,53.8,43.9,29.88,East,82,10.0,14.0,69,0.00,,---,0.00,0.00,VWS V14.01,2013-04-13 08:07:00,
2013-04-13 03:12:00,53.9,44.0,29.88,East,85,8.0,14.0,69,0.00,,---,0.00,0.00,VWS V14.01,2013-04-13 08:12:00,
2013-04-13 03:17:00,53.9,44.0,29.88,ENE,67,5.0,14.0,69,0.00,,---,0.00,0.00,VWS V14.01,2013-04-13 08:17:00,
2013-04-13 03:22:00,53.9,43.6,29.88,East,88,3.0,14.0,68,0.00,,---,0.00,0.00,VWS V14.01,2013-04-13 08:22:00,
2013-04-13 03:27:00,53.9,44.0,29.88,East,92,9.0,15.0,69,0.00,,---,0.00,0.00,VWS V14.01,2013-04-13 08:27:00,
2013-04-13 03:32:00,53.9,44.0,29.88,East,85,9.0,10.0,69,0.00,,---,0.00,0.00,VWS V14.01,2013-04-13 08:32:00,
2013-04-13 03:37:00,53.9,43.6,29.89,East,89,11.0,17.0,68,0.00,,---,0.00,0.00,VWS V14.01,2013-04-13 08:37:00,
2013-04-13 03:43:00,53.9,43.6,29.88,East,90,9.0,17.0,68,0.00,,---,0.00,0.00,VWS V14.01,2013-04-13 08:43:00,
2013-04-13 03:48:00,53.9,43.6,29.88,East,82,9.0,17.0,68,0.00,,---,0.00,0.00,VWS V14.01,2013-04-13 08:48:00,
2013-04-13 03:53:00,53.7,43.8,29.88,East,94,7.0,17.0,69,0.00,,---,0.00,0.00,VWS V14.01,2013-04-13 08:53:00,
2013-04-13 03:58:00,53.5,43.6,29.88,East,84,6.0,17.0,69,0.00,,---,0.00,0.00,VWS V14.01,2013-04-13 08:58:00,
2013-04-13 04:03:00,53.3,43.8,29.88,East,86,7.0,11.0,70,0.00,,---,0.00,0.00,VWS V14.01,2013-04-13 09:03:00,
2013-04-13 04:08:00,53.3,43.8,29.89,East,86,3.0,11.0,70,0.00,,---,0.00,0.00,VWS V14.01,2013-04-13 09:08:00,
2013-04-13 04:13:00,53.2,43.7,29.88,East,88,6.0,11.0,70,0.00,,---,0.00,0.00,VWS V14.01,2013-04-13 09:13:00,
2013-04-13 04:18:00,53.1,43.6,29.89,ENE,72,5.0,11.0,70,0.00,,---,0.00,0.00,VWS V14.01,2013-04-13 09:18:00,
2013-04-13 04:23:00,53.0,43.5,29.89,ENE,65,8.0,11.0,70,0.00,,---,0.00,0.00,VWS V14.01,2013-04-13 09:23:00,
2013-04-13 04:28:00,53.0,43.5,29.90,NE,53,5.0,13.0,70,0.00,,---,0.00,0.00,VWS V14.01,2013-04-13 09:28:00,
2013-04-13 04:33:00,53.0,43.5,29.90,NE,54,6.0,8.0,70,0.00,,---,0.00,0.00,VWS V14.01,2013-04-13 09:33:00,
2013-04-13 04:38:00,52.8,43.3,29.90,ENE,69,9.0,10.0,70,0.00,,---,0.00,0.00,VWS V14.01,2013-04-13 09:38:00,
2013-04-13 04:43:00,52.6,43.1,29.89,East,88,7.0,10.0,70,0.00,,---,0.00,0.00,VWS V14.01,2013-04-13 09:43:00,
2013-04-13 04:49:00,52.4,43.3,29.89,East,93,8.0,10.0,71,0.00,,---,0.00,0.00,VWS V14.01,2013-04-13 09:49:00,
2013-04-13 04:54:00,52.2,43.1,29.89,East,83,3.0,10.0,71,0.00,,---,0.00,0.00,VWS V14.01,2013-04-13 09:54:00,
2013-04-13 04:59:00,52.1,43.0,29.90,East,80,3.0,10.0,71,0.00,,---,0.00,0.00,VWS V14.01,2013-04-13 09:59:00,
2013-04-13 05:04:00,52.1,43.4,29.90,East,80,1.0,8.0,72,0.00,,---,0.00,0.00,VWS V14.01,2013-04-13 10:04:00,
2013-04-13 05:09:00,52.0,43.3,29.90,East,80,1.0,8.0,72,0.00,,---,0.00,0.00,VWS V14.01,2013-04-13 10:09:00,
2013-04-13 05:14:00,51.8,43.1,29.90,East,79,5.0,8.0,72,0.00,,---,0.00,0.00,VWS V14.01,2013-04-13 10:14:00,
2013-04-13 05:19:00,51.7,43.0,29.89,ENE,69,7.0,8.0,72,0.00,,---,0.00,0.00,VWS V14.01,2013-04-13 10:19:00,
2013-04-13 05:24:00,51.7,43.0,29.89,East,98,10.0,11.0,72,0.00,,---,0.00,0.00,VWS V14.01,2013-04-13 10:24:00,
2013-04-13 05:29:00,51.7,43.0,29.89,East,88,6.0,11.0,72,0.00,,---,0.00,0.00,VWS V14.01,2013-04-13 10:29:00,
2013-04-13 05:34:00,51.8,43.1,29.89,East,88,7.0,12.0,72,0.00,,---,0.00,0.00,VWS V14.01,2013-04-13 10:34:00,
2013-04-13 05:39:00,51.8,43.1,29.89,East,82,9.0,18.0,72,0.00,,---,0.00,0.00,VWS V14.01,2013-04-13 10:39:00,
2013-04-13 05:44:00,51.8,43.1,29.89,East,95,9.0,18.0,72,0.00,,---,0.00,0.00,VWS V14.01,2013-04-13 10:44:00,
2013-04-13 05:50:00,51.8,43.1,29.89,East,85,13.0,18.0,72,0.00,,---,0.00,0.00,VWS V14.01,2013-04-13 10:50:00,
2013-04-13 05:55:00,51.9,42.8,29.89,East,92,15.0,18.0,71,0.00,,---,0.00,0.00,VWS V14.01,2013-04-13 10:55:00,
2013-04-13 06:00:00,51.9,42.8,29.89,East,84,10.0,18.0,71,0.00,,---,0.00,0.00,VWS V14.01,2013-04-13 11:00:00,
2013-04-13 06:06:00,51.8,42.7,29.89,East,91,10.0,17.0,71,0.00,,---,0.00,0.00,VWS V14.01,2013-04-13 11:06:00,
2013-04-13 06:11:00,51.7,43.0,29.89,East,89,7.0,17.0,72,0.00,,---,0.00,0.00,VWS V14.01,2013-04-13 11:11:00,
2013-04-13 06:16:00,51.7,43.0,29.89,East,89,7.0,18.0,72,0.00,,---,0.00,0.00,VWS V14.01,2013-04-13 11:16:00,
2013-04-13 06:22:00,51.7,43.0,29.89,East,84,14.0,21.0,72,0.00,,---,0.00,0.00,VWS V14.01,2013-04-13 11:22:00,
2013-04-13 06:27:00,51.6,42.9,29.89,East,95,8.0,21.0,72,0.00,,---,0.00,0.00,VWS V14.01,2013-04-13 11:27:00,
2013-04-13 06:32:00,51.6,42.9,29.89,East,98,6.0,8.0,72,0.00,,---,0.00,0.00,VWS V14.01,2013-04-13 11:32:00,
2013-04-13 06:37:00,51.5,42.8,29.90,East,94,9.0,13.0,72,0.00,,---,0.00,0.00,VWS V14.01,2013-04-13 11:37:00,
2013-04-13 06:42:00,51.5,42.8,29.90,East,91,3.0,13.0,72,0.00,,---,0.00,0.00,VWS V14.01,2013-04-13 11:42:00,
2013-04-13 06:47:00,51.5,42.8,29.90,East,88,5.0,13.0,72,0.00,,---,0.00,0.00,VWS V14.01,2013-04-13 11:47:00,
2013-04-13 06:52:00,51.5,42.8,29.90,East,83,8.0,13.0,72,0.00,,---,0.00,0.00,VWS V14.01,2013-04-13 11:52:00,
2013-04-13 06:57:00,51.5,43.1,29.90,East,90,9.0,13.0,73,0.00,,---,0.00,0.00,VWS V14.01,2013-04-13 11:57:00,
2013-04-13 07:02:00,51.6,42.9,29.90,ESE,107,12.0,16.0,72,0.00,,---,0.00,0.00,VWS V14.01,2013-04-13 12:02:00,
2013-04-13 07:07:00,51.7,43.0,29.90,East,87,6.0,16.0,72,0.00,,---,0.00,0.00,VWS V14.01,2013-04-13 12:07:00,
2013-04-13 07:12:00,51.7,43.0,29.90,East,82,7.0,16.0,72,0.00,,---,0.00,0.00,VWS V14.01,2013-04-13 12:12:00,
2013-04-13 07:17:00,51.8,43.1,29.90,East,89,6.0,16.0,72,0.00,,---,0.00,0.00,VWS V14.01,2013-04-13 12:17:00,
2013-04-13 07:23:00,51.9,43.2,29.91,East,94,6.0,16.0,72,0.00,,---,0.00,5.00,VWS V14.01,2013-04-13 12:23:00,
2013-04-13 07:28:00,52.0,43.3,29.91,East,90,9.0,16.0,72,0.00,,---,0.00,9.00,VWS V14.01,2013-04-13 12:28:00,
2013-04-13 07:33:00,52.0,43.3,29.91,East,98,8.0,15.0,72,0.00,,---,0.00,12.00,VWS V14.01,2013-04-13 12:33:00,
2013-04-13 07:38:00,52.0,43.3,29.91,East,93,7.0,16.0,72,0.00,,---,0.00,21.00,VWS V14.01,2013-04-13 12:38:00,
2013-04-13 07:43:00,52.1,43.4,29.91,East,101,6.0,16.0,72,0.00,,---,0.00,30.00,VWS V14.01,2013-04-13 12:43:00,
2013-04-13 07:48:00,52.2,43.5,29.92,ESE,107,8.0,16.0,72,0.00,,---,0.00,35.00,VWS V14.01,2013-04-13 12:48:00,
2013-04-13 07:53:00,52.2,43.5,29.92,East,91,5.0,16.0,72,0.00,,---,0.00,44.00,VWS V14.01,2013-04-13 12:53:00,
2013-04-13 07:58:00,52.1,43.4,29.92,East,100,9.0,16.0,72,0.00,,---,0.00,54.00,VWS V14.01,2013-04-13 12:58:00,
2013-04-13 08:03:00,52.1,43.4,29.92,East,86,10.0,10.0,72,0.00,,---,0.00,56.00,VWS V14.01,2013-04-13 13:03:00,
2013-04-13 08:08:00,52.1,43.4,29.92,East,93,9.0,14.0,72,0.00,,---,0.00,54.00,VWS V14.01,2013-04-13 13:08:00,
2013-04-13 08:13:00,52.1,43.4,29.92,East,89,6.0,14.0,72,0.00,,---,0.00,56.00,VWS V14.01,2013-04-13 13:13:00,
2013-04-13 08:18:00,52.1,43.4,29.92,East,96,8.0,14.0,72,0.00,,---,0.00,53.00,VWS V14.01,2013-04-13 13:18:00,
2013-04-13 08:23:00,52.1,43.7,29.91,East,91,2.0,14.0,73,0.00,,---,0.00,54.00,VWS V14.01,2013-04-13 13:23:00,
2013-04-13 08:30:00,52.1,43.7,29.91,East,94,2.0,14.0,73,0.00,,---,0.00,116.00,VWS V14.01,2013-04-13 13:30:00,
2013-04-13 08:35:00,52.2,44.2,29.91,ESE,104,10.0,11.0,74,0.00,,---,0.00,174.00,VWS V14.01,2013-04-13 13:35:00,
2013-04-13 08:40:00,52.6,43.8,29.91,ESE,103,8.0,17.0,72,0.00,,---,0.00,93.00,VWS V14.01,2013-04-13 13:40:00,
2013-04-13 08:45:00,52.9,44.1,29.92,ESE,103,7.0,17.0,72,0.00,,---,0.00,243.00,VWS V14.01,2013-04-13 13:45:00,
2013-04-13 08:50:00,53.6,44.8,29.92,ESE,105,9.0,17.0,72,0.00,,---,0.00,330.00,VWS V14.01,2013-04-13 13:50:00,
2013-04-13 08:55:00,54.2,45.0,29.92,ESE,113,7.0,17.0,71,0.00,,---,0.00,223.00,VWS V14.01,2013-04-13 13:55:00,
2013-04-13 09:00:00,54.4,45.2,29.91,East,92,2.0,17.0,71,0.00,,---,0.00,149.00,VWS V14.01,2013-04-13 14:00:00,
2013-04-13 09:05:00,54.4,45.2,29.91,East,88,7.0,15.0,71,0.00,,---,0.00,302.00,VWS V14.01,2013-04-13 14:05:00,
2013-04-13 09:10:00,55.0,45.4,29.91,ESE,116,7.0,16.0,70,0.00,,---,0.00,401.00,VWS V14.01,2013-04-13 14:10:00,
2013-04-13 09:15:00,55.5,45.5,29.91,ESE,113,5.0,16.0,69,0.00,,---,0.00,408.00,VWS V14.01,2013-04-13 14:15:00,
2013-04-13 09:20:00,55.9,45.9,29.91,East,98,8.0,16.0,69,0.00,,---,0.00,424.00,VWS V14.01,2013-04-13 14:20:00,
2013-04-13 09:25:00,56.2,46.2,29.91,ESE,109,5.0,16.0,69,0.00,,---,0.00,432.00,VWS V14.01,2013-04-13 14:25:00,
2013-04-13 09:30:00,56.2,45.8,29.90,East,101,14.0,17.0,68,0.00,,---,0.00,434.00,VWS V14.01,2013-04-13 14:30:00,
2013-04-13 09:35:00,56.7,46.7,29.90,ESE,109,4.0,10.0,69,0.00,,---,0.00,443.00,VWS V14.01,2013-04-13 14:35:00,
2013-04-13 09:40:00,57.2,46.8,29.90,East,97,5.0,17.0,68,0.00,,---,0.00,473.00,VWS V14.01,2013-04-13 14:40:00,
2013-04-13 09:45:00,57.7,46.8,29.91,East,98,6.0,17.0,67,0.00,,---,0.00,489.00,VWS V14.01,2013-04-13 14:45:00,
2013-04-13 09:50:00,58.4,47.5,29.91,ESE,111,5.0,17.0,67,0.00,,---,0.00,494.00,VWS V14.01,2013-04-13 14:50:00,
2013-04-13 09:55:00,59.0,48.1,29.91,ESE,107,5.0,17.0,67,0.00,,---,0.00,531.00,VWS V14.01,2013-04-13 14:55:00,
2013-04-13 10:01:00,58.7,47.4,29.91,SE,130,6.0,17.0,66,0.00,,---,0.00,563.00,VWS V14.01,2013-04-13 15:01:00,
2013-04-13 10:06:00,59.3,47.5,29.91,East,101,9.0,14.0,65,0.00,,---,0.00,564.00,VWS V14.01,2013-04-13 15:06:00,
2013-04-13 10:11:00,59.3,47.5,29.91,SE,129,0.0,14.0,65,0.00,,---,0.00,591.00,VWS V14.01,2013-04-13 15:11:00,
2013-04-13 10:16:00,59.5,48.2,29.91,East,94,7.0,14.0,66,0.00,,---,0.00,557.00,VWS V14.01,2013-04-13 15:16:00,
2013-04-13 10:21:00,59.6,47.8,29.91,East,93,0.0,14.0,65,0.00,,---,0.00,480.00,VWS V14.01,2013-04-13 15:21:00,
2013-04-13 10:26:00,60.4,48.6,29.91,ESE,107,4.0,14.0,65,0.00,,---,0.00,512.00,VWS V14.01,2013-04-13 15:26:00,
2013-04-13 10:31:00,61.3,48.2,29.91,SE,145,4.0,7.0,62,0.00,,---,0.00,684.00,VWS V14.01,2013-04-13 15:31:00,
2013-04-13 10:37:00,61.5,48.8,29.91,SE,143,1.0,7.0,63,0.00,,---,0.00,195.00,VWS V14.01,2013-04-13 15:37:00,
2013-04-13 10:42:00,61.2,48.5,29.91,ESE,121,4.0,7.0,63,0.00,,---,0.00,691.00,VWS V14.01,2013-04-13 15:42:00,
2013-04-13 10:47:00,62.2,49.0,29.90,ESE,103,1.0,9.0,62,0.00,,---,0.00,715.00,VWS V14.01,2013-04-13 15:47:00,
2013-04-13 10:52:00,63.5,49.4,29.90,SE,134,0.0,9.0,60,0.00,,---,0.00,733.00,VWS V14.01,2013-04-13 15:52:00,
2013-04-13 10:57:00,64.3,49.7,29.90,SE,141,3.0,11.0,59,0.00,,---,0.00,434.00,VWS V14.01,2013-04-13 15:57:00,
2013-04-13 11:02:00,64.0,49.4,29.90,ESE,115,7.0,9.0,59,0.00,,---,0.00,584.00,VWS V14.01,2013-04-13 16:02:00,
2013-04-13 11:07:00,64.6,50.0,29.89,SE,141,7.0,15.0,59,0.00,,---,0.00,320.00,VWS V14.01,2013-04-13 16:07:00,
2013-04-13 11:12:00,64.7,48.7,29.89,SSE,164,9.0,15.0,56,0.00,,---,0.00,515.00,VWS V14.01,2013-04-13 16:12:00,
2013-04-13 11:17:00,65.5,49.4,29.89,ESE,117,1.0,15.0,56,0.00,,---,0.00,503.00,VWS V14.01,2013-04-13 16:17:00,
2013-04-13 11:22:00,65.6,48.0,29.89,SE,134,5.0,15.0,53,0.00,,---,0.00,647.00,VWS V14.01,2013-04-13 16:22:00,
2013-04-13 11:28:00,66.3,49.2,29.88,SE,138,6.0,15.0,54,0.00,,---,0.00,823.00,VWS V14.01,2013-04-13 16:28:00,
2013-04-13 11:33:00,66.6,48.4,29.88,ESE,117,8.0,12.0,52,0.00,,---,0.00,830.00,VWS V14.01,2013-04-13 16:33:00,
2013-04-13 11:38:00,67.1,48.4,29.88,SSE,147,11.0,13.0,51,0.00,,---,0.00,773.00,VWS V14.01,2013-04-13 16:38:00,
2013-04-13 11:43:00,67.6,49.4,29.88,SSE,150,5.0,13.0,52,0.00,,---,0.00,853.00,VWS V14.01,2013-04-13 16:43:00,
2013-04-13 11:48:00,67.5,48.8,29.88,SE,138,6.0,14.0,51,0.00,,---,0.00,838.00,VWS V14.01,2013-04-13 16:48:00,
2013-04-13 11:53:00,67.8,48.5,29.88,SE,134,7.0,14.0,50,0.00,,---,0.00,817.00,VWS V14.01,2013-04-13 16:53:00,
2013-04-13 11:58:00,68.2,48.3,29.88,SSE,151,7.0,14.0,49,0.00,,---,0.00,916.00,VWS V14.01,2013-04-13 16:58:00,
2013-04-13 12:03:00,68.5,48.1,29.87,SSE,147,8.0,14.0,48,0.00,,---,0.00,745.00,VWS V14.01,2013-04-13 17:03:00,
2013-04-13 12:08:00,68.4,47.4,29.87,SSE,151,3.0,14.0,47,0.00,,---,0.00,490.00,VWS V14.01,2013-04-13 17:08:00,
2013-04-13 12:13:00,68.6,47.0,29.87,SSE,147,13.0,19.0,46,0.00,,---,0.00,912.00,VWS V14.01,2013-04-13 17:13:00,
2013-04-13 12:18:00,69.1,46.9,29.87,SE,146,5.0,19.0,45,0.00,,---,0.00,956.00,VWS V14.01,2013-04-13 17:18:00,
2013-04-13 12:23:00,68.9,46.7,29.87,SE,136,6.0,19.0,45,0.00,,---,0.00,786.00,VWS V14.01,2013-04-13 17:23:00,
2013-04-13 12:28:00,68.8,46.6,29.87,SE,136,10.0,19.0,45,0.00,,---,0.00,397.00,VWS V14.01,2013-04-13 17:28:00,
2013-04-13 12:33:00,69.2,47.0,29.86,SE,146,6.0,14.0,45,0.00,,---,0.00,805.00,VWS V14.01,2013-04-13 17:33:00,
2013-04-13 12:38:00,69.6,47.3,29.86,SE,138,7.0,14.0,45,0.00,,---,0.00,979.00,VWS V14.01,2013-04-13 17:38:00,
2013-04-13 12:43:00,69.6,46.1,29.86,SE,135,7.0,16.0,43,0.00,,---,0.00,939.00,VWS V14.01,2013-04-13 17:43:00,
2013-04-13 12:48:00,70.3,48.0,29.86,SE,135,8.0,16.0,45,0.00,,---,0.00,912.00,VWS V14.01,2013-04-13 17:48:00,
2013-04-13 12:53:00,70.4,45.6,29.86,SSE,163,3.0,16.0,41,0.00,,---,0.00,912.00,VWS V14.01,2013-04-13 17:53:00,
2013-04-13 12:59:00,70.2,42.7,29.86,SE,144,7.0,16.0,37,0.00,,---,0.00,977.00,VWS V14.01,2013-04-13 17:59:00,
2013-04-13 13:04:00,71.2,45.7,29.85,SSE,156,4.0,15.0,40,0.00,,---,0.00,819.00,VWS V14.01,2013-04-13 18:04:00,
2013-04-13 13:09:00,70.9,42.6,29.85,SSW,198,6.0,16.0,36,0.00,,---,0.00,613.00,VWS V14.01,2013-04-13 18:09:00,
2013-04-13 13:14:00,70.8,44.6,29.85,SSE,161,10.0,16.0,39,0.00,,---,0.00,694.00,VWS V14.01,2013-04-13 18:14:00,
2013-04-13 13:19:00,70.8,43.3,29.85,SE,139,8.0,16.0,37,0.00,,---,0.00,814.00,VWS V14.01,2013-04-13 18:19:00,
2013-04-13 13:24:00,70.4,43.6,29.84,SSE,154,6.0,16.0,38,0.00,,---,0.00,983.00,VWS V14.01,2013-04-13 18:24:00,
2013-04-13 13:27:00,71.1,44.2,29.84,South,178,8.0,18.0,38,0.00,,---,0.00,974.00,VWS V14.01,2013-04-13 18:27:00,
2013-04-13 13:32:00,71.8,43.4,29.84,South,169,11.0,18.0,36,0.00,,---,0.00,1042.00,VWS V14.01,2013-04-13 18:32:00,
2013-04-13 13:37:00,70.9,43.4,29.83,SE,146,8.0,18.0,37,0.00,,---,0.00,636.00,VWS V14.01,2013-04-13 18:37:00,
2013-04-13 13:42:00,71.1,44.9,29.83,SE,139,14.0,18.0,39,0.00,,---,0.00,851.00,VWS V14.01,2013-04-13 18:42:00,
2013-04-13 13:47:00,72.4,44.0,29.83,SSE,153,16.0,18.0,36,0.00,,---,0.00,396.00,VWS V14.01,2013-04-13 18:47:00,
2013-04-13 13:52:00,71.3,41.5,29.82,SSE,153,6.0,18.0,34,0.00,,---,0.00,461.00,VWS V14.01,2013-04-13 18:52:00,
2013-04-13 13:57:00,71.3,41.5,29.82,SE,142,13.0,18.0,34,0.00,,---,0.00,563.00,VWS V14.01,2013-04-13 18:57:00,
2013-04-13 14:02:00,71.0,41.2,29.82,SE,128,6.0,18.0,34,0.00,,---,0.00,663.00,VWS V14.01,2013-04-13 19:02:00,
2013-04-13 14:07:00,71.7,42.6,29.81,SSE,150,11.0,18.0,35,0.00,,---,0.00,786.00,VWS V14.01,2013-04-13 19:07:00,
2013-04-13 14:12:00,72.4,44.0,29.81,SSE,158,10.0,19.0,36,0.00,,---,0.00,631.00,VWS V14.01,2013-04-13 19:12:00,
2013-04-13 14:17:00,71.9,40.5,29.81,SSE,149,7.0,19.0,32,0.00,,---,0.00,561.00,VWS V14.01,2013-04-13 19:17:00,
2013-04-13 14:22:00,71.9,40.5,29.80,SE,140,4.0,19.0,32,0.00,,---,0.00,508.00,VWS V14.01,2013-04-13 19:22:00,
2013-04-13 14:27:00,71.7,42.6,29.80,SE,143,3.0,19.0,35,0.00,,---,0.00,568.00,VWS V14.01,2013-04-13 19:27:00,
2013-04-13 14:32:00,72.2,42.3,29.80,SE,144,7.0,12.0,34,0.00,,---,0.00,571.00,VWS V14.01,2013-04-13 19:32:00,
2013-04-13 14:37:00,73.0,42.2,29.80,SSE,153,11.0,15.0,33,0.00,,---,0.00,796.00,VWS V14.01,2013-04-13 19:37:00,
2013-04-13 14:42:00,72.8,42.8,29.80,SE,133,5.0,16.0,34,0.00,,---,0.00,563.00,VWS V14.01,2013-04-13 19:42:00,
2013-04-13 14:47:00,72.3,41.6,29.79,SSE,150,4.0,16.0,33,0.00,,---,0.00,408.00,VWS V14.01,2013-04-13 19:47:00,
2013-04-13 14:52:00,72.1,43.0,29.79,South,179,2.0,16.0,35,0.00,,---,0.00,765.00,VWS V14.01,2013-04-13 19:52:00,
2013-04-13 14:57:00,72.6,43.4,29.78,SSE,155,3.0,18.0,35,0.00,,---,0.00,745.00,VWS V14.01,2013-04-13 19:57:00,
2013-04-13 15:02:00,72.7,42.0,29.78,SSE,155,7.0,13.0,33,0.00,,---,0.00,584.00,VWS V14.01,2013-04-13 20:02:00,
2013-04-13 15:07:00,73.0,42.2,29.78,SSE,163,7.0,14.0,33,0.00,,---,0.00,438.00,VWS V14.01,2013-04-13 20:07:00,
2013-04-13 15:13:00,73.3,42.5,29.78,SSE,155,8.0,14.0,33,0.00,,---,0.00,670.00,VWS V14.01,2013-04-13 20:13:00,
2013-04-13 15:17:00,74.1,44.0,29.77,SSE,159,9.0,14.0,34,0.00,,---,0.00,513.00,VWS V14.01,2013-04-13 20:17:00,
2013-04-13 15:22:00,73.5,43.4,29.77,SSE,159,10.0,14.0,34,0.00,,---,0.00,756.00,VWS V14.01,2013-04-13 20:22:00,
2013-04-13 15:28:00,73.5,42.7,29.77,SE,144,15.0,19.0,33,0.00,,---,0.00,664.00,VWS V14.01,2013-04-13 20:28:00,
2013-04-13 15:33:00,73.6,42.0,29.76,SE,143,6.0,14.0,32,0.00,,---,0.00,891.00,VWS V14.01,2013-04-13 20:33:00,
2013-04-13 15:38:00,74.6,43.6,29.76,SE,133,11.0,15.0,33,0.00,,---,0.00,946.00,VWS V14.01,2013-04-13 20:38:00,
2013-04-13 15:43:00,74.9,43.9,29.75,SE,135,6.0,15.0,33,0.00,,---,0.00,937.00,VWS V14.01,2013-04-13 20:43:00,
2013-04-13 15:48:00,74.8,43.0,29.75,SSE,151,10.0,16.0,32,0.00,,---,0.00,895.00,VWS V14.01,2013-04-13 20:48:00,
2013-04-13 15:53:00,74.4,43.5,29.75,ESE,108,13.0,19.0,33,0.00,,---,0.00,751.00,VWS V14.01,2013-04-13 20:53:00,
2013-04-13 15:58:00,74.7,43.7,29.75,SSE,161,15.0,19.0,33,0.00,,---,0.00,758.00,VWS V14.01,2013-04-13 20:58:00,
2013-04-13 16:03:00,74.7,43.7,29.74,SE,145,12.0,12.0,33,0.00,,---,0.00,619.00,VWS V14.01,2013-04-13 21:03:00,
2013-04-13 16:08:00,74.5,41.9,29.74,SSE,163,8.0,18.0,31,0.00,,---,0.00,895.00,VWS V14.01,2013-04-13 21:08:00,
2013-04-13 16:13:00,75.2,44.2,29.73,SE,136,7.0,18.0,33,0.00,,---,0.00,856.00,VWS V14.01,2013-04-13 21:13:00,
2013-04-13 16:18:00,75.5,44.4,29.73,SSE,158,9.0,21.0,33,0.00,,---,0.00,708.00,VWS V14.01,2013-04-13 21:18:00,
2013-04-13 16:23:00,75.3,45.0,29.73,SSE,155,5.0,21.0,34,0.00,,---,0.00,737.00,VWS V14.01,2013-04-13 21:23:00,
2013-04-13 16:28:00,75.2,43.3,29.72,SE,140,10.0,21.0,32,0.00,,---,0.00,626.00,VWS V14.01,2013-04-13 21:28:00,
2013-04-13 16:33:00,74.4,42.7,29.72,SSE,147,7.0,14.0,32,0.00,,---,0.00,355.00,VWS V14.01,2013-04-13 21:33:00,
2013-04-13 16:38:00,74.0,43.9,29.72,SSE,148,2.0,14.0,34,0.00,,---,0.00,339.00,VWS V14.01,2013-04-13 21:38:00,
2013-04-13 16:42:00,74.5,43.5,29.71,SE,136,6.0,14.0,33,0.00,,---,0.00,673.00,VWS V14.01,2013-04-13 21:42:00,
2013-04-13 16:47:00,75.1,42.4,29.71,SSE,151,16.0,19.0,31,0.00,,---,0.00,670.00,VWS V14.01,2013-04-13 21:47:00,
2013-04-13 16:52:00,75.4,44.3,29.70,SSE,153,15.0,19.0,33,0.00,,---,0.00,584.00,VWS V14.01,2013-04-13 21:52:00,
2013-04-13 16:57:00,75.1,42.4,29.70,SSE,155,9.0,19.0,31,0.00,,---,0.00,424.00,VWS V14.01,2013-04-13 21:57:00,
2013-04-13 17:02:00,74.8,42.2,29.70,SE,141,7.0,18.0,31,0.00,,---,0.00,524.00,VWS V14.01,2013-04-13 22:02:00,
2013-04-13 17:07:00,75.1,43.3,29.70,SE,138,10.0,18.0,32,0.00,,---,0.00,624.00,VWS V14.01,2013-04-13 22:07:00,
2013-04-13 17:12:00,74.8,42.2,29.69,SSE,155,7.0,22.0,31,0.00,,---,0.00,313.00,VWS V14.01,2013-04-13 22:12:00,
2013-04-13 17:17:00,74.5,42.7,29.69,SE,144,3.0,22.0,32,0.00,,---,0.00,429.00,VWS V14.01,2013-04-13 22:17:00,
2013-04-13 17:22:00,75.5,43.6,29.68,ESE,123,7.0,22.0,32,0.00,,---,0.00,585.00,VWS V14.01,2013-04-13 22:22:00,
2013-04-13 17:27:00,75.5,41.9,29.68,SE,144,8.0,22.0,30,0.00,,---,0.00,541.00,VWS V14.01,2013-04-13 22:27:00,
2013-04-13 17:32:00,75.4,41.8,29.68,SSE,153,12.0,19.0,30,0.00,,---,0.00,383.00,VWS V14.01,2013-04-13 22:32:00,
2013-04-13 17:37:00,75.3,42.6,29.68,ESE,118,5.0,19.0,31,0.00,,---,0.00,441.00,VWS V14.01,2013-04-13 22:37:00,
2013-04-13 17:42:00,75.3,41.8,29.68,SE,144,8.0,19.0,30,0.00,,---,0.00,288.00,VWS V14.01,2013-04-13 22:42:00,
2013-04-13 17:47:00,75.6,42.9,29.67,SE,145,8.0,19.0,31,0.00,,---,0.00,452.00,VWS V14.01,2013-04-13 22:47:00,
2013-04-13 17:52:00,75.8,43.0,29.67,SE,131,9.0,19.0,31,0.00,,---,0.00,431.00,VWS V14.01,2013-04-13 22:52:00,
2013-04-13 17:57:00,75.5,41.9,29.67,SE,142,8.0,21.0,30,0.00,,---,0.00,408.00,VWS V14.01,2013-04-13 22:57:00,
2013-04-13 18:02:00,75.5,42.8,29.67,ESE,123,16.0,16.0,31,0.00,,---,0.00,397.00,VWS V14.01,2013-04-13 23:02:00,
2013-04-13 18:07:00,75.7,43.8,29.66,SE,125,3.0,16.0,32,0.00,,---,0.00,381.00,VWS V14.01,2013-04-13 23:07:00,
2013-04-13 18:12:00,75.5,43.6,29.66,SE,141,5.0,19.0,32,0.00,,---,0.00,367.00,VWS V14.01,2013-04-13 23:12:00,
2013-04-13 18:17:00,75.6,42.9,29.66,SE,140,3.0,21.0,31,0.00,,---,0.00,353.00,VWS V14.01,2013-04-13 23:17:00,
2013-04-13 18:22:00,75.6,42.9,29.66,SSE,148,10.0,21.0,31,0.00,,---,0.00,338.00,VWS V14.01,2013-04-13 23:22:00,
2013-04-13 18:27:00,75.5,42.8,29.65,SE,134,12.0,21.0,31,0.00,,---,0.00,315.00,VWS V14.01,2013-04-13 23:27:00,
2013-04-13 18:32:00,75.4,43.5,29.65,SE,131,6.0,9.0,32,0.00,,---,0.00,295.00,VWS V14.01,2013-04-13 23:32:00,
2013-04-13 18:37:00,75.2,44.2,29.65,SE,134,4.0,14.0,33,0.00,,---,0.00,274.00,VWS V14.01,2013-04-13 23:37:00,
2013-04-13 18:42:00,74.9,44.7,29.65,SE,130,1.0,14.0,34,0.00,,---,0.00,251.00,VWS V14.01,2013-04-13 23:42:00,
2013-04-13 18:47:00,74.5,44.3,29.64,SE,136,4.0,14.0,34,0.00,,---,0.00,232.00,VWS V14.01,2013-04-13 23:47:00,
2013-04-13 18:52:00,74.1,44.7,29.64,SE,136,3.0,14.0,35,0.00,,---,0.00,211.00,VWS V14.01,2013-04-13 23:52:00,
2013-04-13 18:57:00,73.9,44.5,29.64,SE,125,2.0,14.0,35,0.00,,---,0.00,190.00,VWS V14.01,2013-04-13 23:57:00,
2013-04-13 19:02:00,73.9,44.5,29.64,SE,128,3.0,10.0,35,0.00,,---,0.00,165.00,VWS V14.01,2013-04-14 00:02:00,
2013-04-13 19:07:00,73.4,46.3,29.64,ESE,119,4.0,10.0,38,0.00,,---,0.00,142.00,VWS V14.01,2013-04-14 00:07:00,
2013-04-13 19:12:00,72.9,46.5,29.64,East,90,7.0,10.0,39,0.00,,---,0.00,125.00,VWS V14.01,2013-04-14 00:12:00,
2013-04-13 19:18:00,72.5,46.8,29.64,ESE,121,1.0,11.0,40,0.00,,---,0.00,105.00,VWS V14.01,2013-04-14 00:18:00,
2013-04-13 19:23:00,71.9,47.6,29.64,East,96,1.0,11.0,42,0.00,,---,0.00,86.00,VWS V14.01,2013-04-14 00:23:00,
2013-04-13 19:28:00,71.3,47.7,29.64,ESE,103,3.0,11.0,43,0.00,,---,0.00,69.00,VWS V14.01,2013-04-14 00:28:00,
2013-04-13 19:33:00,70.9,47.3,29.64,ESE,107,4.0,7.0,43,0.00,,---,0.00,54.00,VWS V14.01,2013-04-14 00:33:00,
2013-04-13 19:38:00,70.6,47.7,29.63,ESE,103,1.0,8.0,44,0.00,,---,0.00,42.00,VWS V14.01,2013-04-14 00:38:00,
2013-04-13 19:43:00,70.0,47.7,29.63,ESE,103,0.0,8.0,45,0.00,,---,0.00,32.00,VWS V14.01,2013-04-14 00:43:00,
2013-04-13 19:48:00,69.4,47.7,29.63,ESE,103,1.0,8.0,46,0.00,,---,0.00,23.00,VWS V14.01,2013-04-14 00:48:00,
2013-04-13 19:53:00,68.9,47.3,29.63,ESE,102,3.0,8.0,46,0.00,,---,0.00,19.00,VWS V14.01,2013-04-14 00:53:00,
2013-04-13 19:58:00,68.4,48.0,29.63,ESE,102,2.0,8.0,48,0.00,,---,0.00,12.00,VWS V14.01,2013-04-14 00:58:00,
2013-04-13 20:03:00,67.9,47.5,29.63,ESE,102,2.0,3.0,48,0.00,,---,0.00,9.00,VWS V14.01,2013-04-14 01:03:00,
2013-04-13 20:08:00,67.6,47.8,29.63,East,101,5.0,8.0,49,0.00,,---,0.00,5.00,VWS V14.01,2013-04-14 01:08:00,
2013-04-13 20:13:00,67.2,47.4,29.63,East,101,3.0,8.0,49,0.00,,---,0.00,0.00,VWS V14.01,2013-04-14 01:13:00,
2013-04-13 20:17:00,66.7,47.5,29.63,East,100,3.0,8.0,50,0.00,,---,0.00,0.00,VWS V14.01,2013-04-14 01:17:00,
2013-04-13 20:22:00,66.4,47.7,29.63,East,100,2.0,8.0,51,0.00,,---,0.00,0.00,VWS V14.01,2013-04-14 01:22:00,
2013-04-13 20:27:00,66.0,47.4,29.63,East,100,1.0,8.0,51,0.00,,---,0.00,0.00,VWS V14.01,2013-04-14 01:27:00,
2013-04-13 20:32:00,65.2,47.7,29.63,East,100,0.0,0.0,53,0.00,,---,0.00,0.00,VWS V14.01,2013-04-14 01:32:00,
2013-04-13 20:38:00,64.3,47.8,29.63,East,100,0.0,0.0,55,0.00,,---,0.00,0.00,VWS V14.01,2013-04-14 01:38:00,
2013-04-13 20:42:00,63.7,47.7,29.63,East,101,0.0,0.0,56,0.00,,---,0.00,0.00,VWS V14.01,2013-04-14 01:42:00,
2013-04-13 20:48:00,63.2,47.7,29.63,East,100,0.0,0.0,57,0.00,,---,0.00,0.00,VWS V14.01,2013-04-14 01:48:00,
2013-04-13 20:52:00,62.9,47.9,29.63,East,100,0.0,0.0,58,0.00,,---,0.00,0.00,VWS V14.01,2013-04-14 01:52:00,
2013-04-13 20:57:00,62.9,47.9,29.63,East,101,0.0,0.0,58,0.00,,---,0.00,0.00,VWS V14.01,2013-04-14 01:57:00,
2013-04-13 21:02:00,62.9,47.5,29.63,East,101,0.0,0.0,57,0.00,,---,0.00,0.00,VWS V14.01,2013-04-14 02:02:00,
2013-04-13 21:07:00,63.0,47.5,29.63,East,101,1.0,2.0,57,0.00,,---,0.00,0.00,VWS V14.01,2013-04-14 02:07:00,
2013-04-13 21:12:00,63.1,47.6,29.63,East,101,1.0,2.0,57,0.00,,---,0.00,0.00,VWS V14.01,2013-04-14 02:12:00,
2013-04-13 21:17:00,63.0,47.5,29.63,East,101,0.0,2.0,57,0.00,,---,0.00,0.00,VWS V14.01,2013-04-14 02:17:00,
2013-04-13 21:22:00,62.9,47.5,29.63,East,101,2.0,5.0,57,0.00,,---,0.00,0.00,VWS V14.01,2013-04-14 02:22:00,
2013-04-13 21:27:00,62.7,47.3,29.64,East,101,2.0,5.0,57,0.00,,---,0.00,0.00,VWS V14.01,2013-04-14 02:27:00,
2013-04-13 21:32:00,62.6,47.2,29.64,ESE,103,4.0,7.0,57,0.00,,---,0.00,0.00,VWS V14.01,2013-04-14 02:32:00,
2013-04-13 21:37:00,63.1,46.7,29.64,ESE,121,3.0,7.0,55,0.00,,---,0.00,0.00,VWS V14.01,2013-04-14 02:37:00,
2013-04-13 21:42:00,63.6,46.7,29.64,SE,128,3.0,8.0,54,0.00,,---,0.00,0.00,VWS V14.01,2013-04-14 02:42:00,
2013-04-13 21:47:00,63.8,46.4,29.65,SE,130,4.0,8.0,53,0.00,,---,0.00,0.00,VWS V14.01,2013-04-14 02:47:00,
2013-04-13 21:52:00,63.8,45.9,29.65,SE,131,3.0,8.0,52,0.00,,---,0.00,0.00,VWS V14.01,2013-04-14 02:52:00,
2013-04-13 21:57:00,63.9,46.0,29.65,SE,132,5.0,8.0,52,0.00,,---,0.00,0.00,VWS V14.01,2013-04-14 02:57:00,
2013-04-13 22:02:00,63.9,46.0,29.65,SE,132,3.0,6.0,52,0.00,,---,0.00,0.00,VWS V14.01,2013-04-14 03:02:00,
2013-04-13 22:07:00,63.4,46.0,29.65,SE,132,5.0,8.0,53,0.00,,---,0.00,0.00,VWS V14.01,2013-04-14 03:07:00,
2013-04-13 22:12:00,62.7,46.3,29.65,SE,132,5.0,8.0,55,0.00,,---,0.00,0.00,VWS V14.01,2013-04-14 03:12:00,
2013-04-13 22:17:00,62.3,46.4,29.65,SE,133,4.0,8.0,56,0.00,,---,0.00,0.00,VWS V14.01,2013-04-14 03:17:00,
2013-04-13 22:22:00,62.5,46.1,29.65,SE,132,6.0,8.0,55,0.00,,---,0.00,0.00,VWS V14.01,2013-04-14 03:22:00,
2013-04-13 22:27:00,62.5,46.1,29.65,SE,131,4.0,8.0,55,0.00,,---,0.00,0.00,VWS V14.01,2013-04-14 03:27:00,
2013-04-13 22:32:00,62.3,46.4,29.65,SE,132,5.0,6.0,56,0.00,,---,0.00,0.00,VWS V14.01,2013-04-14 03:32:00,
2013-04-13 22:37:00,62.3,46.4,29.65,SE,129,5.0,9.0,56,0.00,,---,0.00,0.00,VWS V14.01,2013-04-14 03:37:00,
2013-04-13 22:42:00,62.4,46.5,29.65,SE,127,5.0,11.0,56,0.00,,---,0.00,0.00,VWS V14.01,2013-04-14 03:42:00,
2013-04-13 22:47:00,62.2,46.3,29.65,SE,135,5.0,11.0,56,0.00,,---,0.00,0.00,VWS V14.01,2013-04-14 03:47:00,
2013-04-13 22:52:00,62.3,46.4,29.65,SE,142,7.0,11.0,56,0.00,,---,0.00,0.00,VWS V14.01,2013-04-14 03:52:00,
2013-04-13 22:57:00,62.4,46.5,29.65,SE,130,5.0,13.0,56,0.00,,---,0.00,0.00,VWS V14.01,2013-04-14 03:57:00,
2013-04-13 23:00:00,62.3,46.4,29.65,SE,142,7.0,13.0,56,0.00,,---,0.00,0.00,VWS V14.01,2013-04-14 04:00:00,
2013-04-13 23:05:00,62.3,46.0,29.65,SE,136,7.0,13.0,55,0.00,,---,0.00,0.00,VWS V14.01,2013-04-14 04:05:00,
2013-04-13 23:10:00,62.4,46.0,29.65,SE,137,6.0,13.0,55,0.00,,---,0.00,0.00,VWS V14.01,2013-04-14 04:10:00,
2013-04-13 23:15:00,62.6,45.7,29.65,SE,140,5.0,13.0,54,0.00,,---,0.00,0.00,VWS V14.01,2013-04-14 04:15:00,
2013-04-13 23:20:00,62.7,45.3,29.65,SE,140,4.0,13.0,53,0.00,,---,0.00,0.00,VWS V14.01,2013-04-14 04:20:00,
2013-04-13 23:25:00,62.8,45.4,29.65,SE,128,9.0,13.0,53,0.00,,---,0.00,0.00,VWS V14.01,2013-04-14 04:25:00,
2013-04-13 23:30:00,63.0,45.6,29.65,SE,146,5.0,13.0,53,0.00,,---,0.00,0.00,VWS V14.01,2013-04-14 04:30:00,
2013-04-13 23:35:00,63.0,45.6,29.65,SSE,148,5.0,14.0,53,0.00,,---,0.00,0.00,VWS V14.01,2013-04-14 04:35:00,
2013-04-13 23:40:00,63.0,45.6,29.65,SE,140,9.0,14.0,53,0.00,,---,0.00,0.00,VWS V14.01,2013-04-14 04:40:00,
2013-04-13 23:45:00,62.9,45.5,29.65,SE,140,6.0,15.0,53,0.00,,---,0.00,0.00,VWS V14.01,2013-04-14 04:45:00,
2013-04-13 23:50:00,62.8,45.4,29.65,SE,138,7.0,15.0,53,0.00,,---,0.00,0.00,VWS V14.01,2013-04-14 04:50:00,
2013-04-13 23:55:00,62.8,45.4,29.65,SE,144,5.0,15.0,53,0.00,,---,0.00,0.00,VWS V14.01,2013-04-14 04:55:00,